| time (UTC) | temp F | wind direction | speed MPH | gust MPH | rain 1hr in | rain 24hr in | rain mn in | humidity % | barometer mb |
| 20260503230113 | 77 | 148 | 6.0 | 16.0 | 0.00 | 0.00 | 0.00 | 40 | 1014.7 |
| 20260503224603 | 77 | 169 | 8.0 | 15.0 | 0.00 | 0.00 | 0.00 | 38 | 1014.9 |
| 20260503223055 | 77 | 155 | 6.0 | 15.0 | 0.00 | 0.00 | 0.00 | 38 | 1014.9 |
| 20260503221556 | 78 | 127 | 6.0 | 14.0 | 0.00 | 0.00 | 0.00 | 40 | 1015.0 |
| 20260503220053 | 77 | 190 | 7.0 | 15.0 | 0.00 | 0.00 | 0.00 | 38 | 1015.3 |
| 20260503214551 | 78 | 182 | 8.0 | 17.0 | 0.00 | 0.00 | 0.00 | 40 | 1015.5 |
| 20260503213054 | 78 | 171 | 5.0 | 15.0 | 0.00 | 0.00 | 0.00 | 42 | 1015.7 |
| 20260503211605 | 78 | 211 | 6.0 | 13.0 | 0.00 | 0.00 | 0.00 | 39 | 1016.0 |
| 20260503210045 | 78 | 197 | 8.0 | 13.0 | 0.00 | 0.00 | 0.00 | 38 | 1016.2 |
| 20260503204543 | 78 | 191 | 11.0 | 17.0 | 0.00 | 0.00 | 0.00 | 35 | 1016.6 |
| 20260503203046 | 78 | 186 | 8.0 | 17.0 | 0.00 | 0.00 | 0.00 | 40 | 1016.8 |
| 20260503201539 | 78 | 222 | 5.0 | 14.0 | 0.00 | 0.00 | 0.00 | 39 | 1017.2 |
| 20260503200052 | 78 | 170 | 9.0 | 14.0 | 0.00 | 0.00 | 0.00 | 38 | 1017.3 |
| 20260503194535 | 78 | 204 | 5.0 | 13.0 | 0.00 | 0.00 | 0.00 | 40 | 1017.5 |
| 20260503193036 | 78 | 177 | 9.0 | 15.0 | 0.00 | 0.00 | 0.00 | 37 | 1017.8 |
| 20260503191529 | 78 | 153 | 6.0 | 12.0 | 0.00 | 0.00 | 0.00 | 41 | 1018.1 |
| 20260503190028 | 78 | 208 | 7.0 | 15.0 | 0.00 | 0.00 | 0.00 | 39 | 1018.4 |
| 20260503184538 | 78 | 182 | 8.0 | 12.0 | 0.00 | 0.00 | 0.00 | 39 | 1018.6 |
| 20260503183023 | 77 | 161 | 7.0 | 16.0 | 0.00 | 0.00 | 0.00 | 42 | 1018.8 |
| 20260503181521 | 76 | 215 | 10.0 | 17.0 | 0.00 | 0.00 | 0.00 | 40 | 1019.0 |
| 20260503180038 | 76 | 221 | 8.0 | 17.0 | 0.00 | 0.00 | 0.00 | 42 | 1019.2 |
| 20260503174524 | 76 | 220 | 7.0 | 13.0 | 0.00 | 0.00 | 0.00 | 47 | 1019.6 |
| 20260503173015 | 75 | 212 | 6.0 | 12.0 | 0.00 | 0.00 | 0.00 | 49 | 1019.8 |
| 20260503171511 | 75 | 216 | 7.0 | 13.0 | 0.00 | 0.00 | 0.00 | 52 | 1020.1 |
| 20260503081558 | 55 | 185 | 3.0 | 7.0 | 0.00 | 0.01 | 0.00 | 77 | 1018.9 |
| 20260503080106 | 55 | 203 | 3.0 | 7.0 | 0.00 | 0.01 | 0.00 | 77 | 1019.0 |
| 20260503071557 | 55 | 204 | 3.0 | 6.0 | 0.00 | 0.01 | 0.00 | 77 | 1019.5 |
| 20260503054533 | 59 | 194 | 5.0 | 9.0 | 0.00 | 0.01 | 0.00 | 70 | 1019.5 |
| 20260503053031 | 60 | 184 | 5.0 | 9.0 | 0.00 | 0.01 | 0.00 | 69 | 1019.4 |
| 20260503051535 | 60 | 213 | 4.0 | 9.0 | 0.00 | 0.01 | 0.00 | 69 | 1019.2 |
| 20260503050025 | 61 | 174 | 5.0 | 9.0 | 0.00 | 0.01 | 0.00 | 67 | 1019.1 |
| 20260503044527 | 61 | 201 | 4.0 | 9.0 | 0.00 | 0.01 | 0.01 | 66 | 1019.1 |
| 20260503043024 | 61 | 188 | 3.0 | 8.0 | 0.00 | 0.01 | 0.01 | 65 | 1019.2 |
| 20260503041524 | 61 | 178 | 4.0 | 6.0 | 0.00 | 0.01 | 0.01 | 64 | 1019.2 |
| 20260503040023 | 61 | 183 | 3.0 | 6.0 | 0.00 | 0.01 | 0.01 | 64 | 1019.2 |
| 20260503034523 | 62 | 169 | 3.0 | 5.0 | 0.00 | 0.01 | 0.01 | 63 | 1019.2 |
| 20260503033034 | 62 | 184 | 3.0 | 5.0 | 0.00 | 0.01 | 0.01 | 61 | 1019.3 |
| 20260503031523 | 63 | 180 | 2.0 | 4.0 | 0.00 | 0.01 | 0.01 | 59 | 1019.1 |
| 20260503030043 | 63 | 181 | 2.0 | 3.0 | 0.00 | 0.01 | 0.01 | 59 | 1019.0 |
| 20260503024530 | 64 | 166 | 2.0 | 4.0 | 0.00 | 0.01 | 0.01 | 58 | 1018.8 |
| 20260503023020 | 64 | 172 | 2.0 | 4.0 | 0.00 | 0.01 | 0.01 | 57 | 1018.8 |
| 20260503021525 | 65 | 182 | 2.0 | 4.0 | 0.00 | 0.01 | 0.01 | 56 | 1018.5 |
| 20260503020021 | 65 | 178 | 1.0 | 3.0 | 0.00 | 0.01 | 0.01 | 55 | 1018.5 |
| 20260503014520 | 66 | 208 | 1.0 | 2.0 | 0.00 | 0.01 | 0.01 | 54 | 1018.4 |
| 20260503013019 | 67 | 208 | 0.0 | 0.0 | 0.00 | 0.01 | 0.01 | 54 | 1018.3 |
| 20260503011518 | 68 | 208 | 0.0 | 2.0 | 0.00 | 0.01 | 0.01 | 53 | 1018.3 |
| 20260503010020 | 69 | 208 | 0.0 | 0.0 | 0.00 | 0.01 | 0.01 | 51 | 1018.3 |
| 20260503004520 | 71 | 208 | 1.0 | 3.0 | 0.00 | 0.01 | 0.01 | 50 | 1018.3 |
| 20260503003017 | 72 | 208 | 0.0 | 1.0 | 0.00 | 0.01 | 0.01 | 45 | 1018.3 |
| 20260503001517 | 72 | 208 | 0.0 | 3.0 | 0.00 | 0.01 | 0.01 | 47 | 1018.3 |
| 20260503000028 | 73 | 215 | 2.0 | 4.0 | 0.00 | 0.01 | 0.01 | 47 | 1018.2 |
| 20260502234515 | 73 | 217 | 2.0 | 7.0 | 0.00 | 0.01 | 0.01 | 43 | 1018.3 |
| 20260502233014 | 74 | 232 | 2.0 | 4.0 | 0.00 | 0.01 | 0.01 | 44 | 1018.3 |
| 20260502231513 | 74 | 16 | 0.0 | 1.0 | 0.00 | 0.01 | 0.01 | 44 | 1018.5 |